| time (UTC) | temp C | wind direction | speed KPH | gust KPH | rain 1hr cm | rain 24hr cm | rain mn cm | humidity % | barometer mb |
| 20260505095506 | 15 | 67 | 1.6 | 3.2 | 0.00 | 0.00 | 0.00 | 58 | 1017.3 |
| 20260505095005 | 15 | 25 | 0.0 | 0.0 | 0.00 | 0.00 | 0.00 | 58 | 1017.3 |
| 20260505094504 | 15 | 64 | 1.6 | 1.6 | 0.00 | 0.00 | 0.00 | 58 | 1016.9 |
| 20260505094004 | 15 | 50 | 1.6 | 3.2 | 0.00 | 0.00 | 0.00 | 57 | 1016.9 |
| 20260505093505 | 15 | 42 | 1.6 | 3.2 | 0.00 | 0.00 | 0.00 | 57 | 1016.9 |
| 20260505093005 | 15 | 53 | 1.6 | 4.8 | 0.00 | 0.00 | 0.00 | 57 | 1016.9 |
| 20260505092504 | 15 | 228 | 3.2 | 3.2 | 0.00 | 0.00 | 0.00 | 57 | 1016.9 |
| 20260505092004 | 15 | 54 | 0.0 | 0.0 | 0.00 | 0.00 | 0.00 | 57 | 1016.9 |
| 20260505091504 | 15 | 65 | 1.6 | 1.6 | 0.00 | 0.00 | 0.00 | 57 | 1016.9 |
| 20260505091004 | 15 | 14 | 1.6 | 3.2 | 0.00 | 0.00 | 0.00 | 57 | 1016.9 |
| 20260505090504 | 16 | 66 | 3.2 | 3.2 | 0.00 | 0.00 | 0.00 | 56 | 1016.9 |
| 20260505090005 | 16 | 57 | 1.6 | 1.6 | 0.00 | 0.00 | 0.00 | 57 | 1016.9 |
| 20260505085505 | 16 | 54 | 1.6 | 1.6 | 0.00 | 0.00 | 0.00 | 57 | 1016.9 |
| 20260505085004 | 16 | 79 | 0.0 | 0.0 | 0.00 | 0.00 | 0.00 | 57 | 1016.9 |
| 20260505084504 | 16 | 48 | 1.6 | 1.6 | 0.00 | 0.00 | 0.00 | 57 | 1016.9 |
| 20260505084005 | 16 | 52 | 1.6 | 1.6 | 0.00 | 0.00 | 0.00 | 56 | 1016.9 |
| 20260505083504 | 16 | 65 | 1.6 | 1.6 | 0.00 | 0.00 | 0.00 | 56 | 1016.9 |
| 20260505083005 | 16 | 54 | 0.0 | 1.6 | 0.00 | 0.00 | 0.00 | 55 | 1016.9 |
| 20260505082505 | 16 | 63 | 1.6 | 3.2 | 0.00 | 0.00 | 0.00 | 55 | 1016.9 |
| 20260505082005 | 16 | 64 | 1.6 | 3.2 | 0.00 | 0.00 | 0.00 | 55 | 1016.9 |
| 20260505081505 | 16 | 180 | 1.6 | 1.6 | 0.00 | 0.00 | 0.00 | 55 | 1016.9 |
| 20260505081004 | 16 | 85 | 3.2 | 4.8 | 0.00 | 0.00 | 0.00 | 55 | 1016.9 |
| 20260505080505 | 16 | 77 | 0.0 | 0.0 | 0.00 | 0.00 | 0.00 | 54 | 1016.9 |
| 20260505080005 | 16 | 40 | 1.6 | 1.6 | 0.00 | 0.00 | 0.00 | 54 | 1016.9 |
| 20260505075505 | 16 | 65 | 1.6 | 1.6 | 0.00 | 0.00 | 0.00 | 54 | 1016.9 |
| 20260505075004 | 16 | 52 | 1.6 | 1.6 | 0.00 | 0.00 | 0.00 | 54 | 1016.9 |
| 20260505074505 | 16 | 263 | 1.6 | 3.2 | 0.00 | 0.00 | 0.00 | 54 | 1016.6 |
| 20260505074005 | 16 | 243 | 3.2 | 3.2 | 0.00 | 0.00 | 0.00 | 54 | 1016.6 |
| 20260505073505 | 16 | 74 | 3.2 | 3.2 | 0.00 | 0.00 | 0.00 | 54 | 1016.6 |
| 20260505073004 | 16 | 57 | 0.0 | 1.6 | 0.00 | 0.00 | 0.00 | 54 | 1016.6 |
| 20260505072504 | 16 | 59 | 1.6 | 1.6 | 0.00 | 0.00 | 0.00 | 55 | 1016.6 |
| 20260505072004 | 16 | 43 | 1.6 | 3.2 | 0.00 | 0.00 | 0.00 | 54 | 1016.6 |
| 20260505071504 | 16 | 253 | 3.2 | 3.2 | 0.00 | 0.00 | 0.00 | 55 | 1016.6 |
| 20260505071005 | 16 | 84 | 0.0 | 3.2 | 0.00 | 0.00 | 0.00 | 55 | 1016.6 |
| 20260505070505 | 16 | 43 | 1.6 | 1.6 | 0.00 | 0.00 | 0.00 | 55 | 1016.6 |
| 20260505070005 | 16 | 45 | 0.0 | 1.6 | 0.00 | 0.00 | 0.00 | 55 | 1016.6 |
| 20260505065504 | 16 | 59 | 1.6 | 3.2 | 0.00 | 0.00 | 0.00 | 55 | 1016.6 |
| 20260505065004 | 16 | 71 | 1.6 | 1.6 | 0.00 | 0.00 | 0.00 | 55 | 1016.6 |
| 20260505064504 | 16 | 48 | 0.0 | 0.0 | 0.00 | 0.00 | 0.00 | 55 | 1016.6 |
| 20260505064004 | 16 | 57 | 0.0 | 1.6 | 0.00 | 0.00 | 0.00 | 55 | 1016.6 |
| 20260505063504 | 16 | 57 | 1.6 | 1.6 | 0.00 | 0.00 | 0.00 | 55 | 1016.6 |
| 20260505063004 | 16 | 63 | 1.6 | 1.6 | 0.00 | 0.00 | 0.00 | 55 | 1016.6 |
| 20260505062505 | 16 | 47 | 0.0 | 0.0 | 0.00 | 0.00 | 0.00 | 55 | 1016.6 |
| 20260505062004 | 16 | 62 | 0.0 | 0.0 | 0.00 | 0.00 | 0.00 | 54 | 1016.6 |
| 20260505061504 | 16 | 50 | 0.0 | 0.0 | 0.00 | 0.00 | 0.00 | 54 | 1016.6 |
| 20260505061004 | 17 | 34 | 1.6 | 1.6 | 0.00 | 0.00 | 0.00 | 54 | 1016.6 |
| 20260505060504 | 17 | 56 | 3.2 | 3.2 | 0.00 | 0.00 | 0.00 | 54 | 1016.6 |
| 20260505060006 | 17 | 269 | 0.0 | 0.0 | 0.00 | 0.00 | 0.00 | 53 | 1016.6 |
| 20260505055505 | 17 | 41 | 1.6 | 1.6 | 0.00 | 0.00 | 0.00 | 53 | 1016.6 |
| 20260505055004 | 17 | 53 | 0.0 | 0.0 | 0.00 | 0.00 | 0.00 | 52 | 1016.6 |
| 20260505054505 | 17 | 42 | 0.0 | 0.0 | 0.00 | 0.00 | 0.00 | 52 | 1016.6 |
| 20260505054005 | 17 | 67 | 1.6 | 1.6 | 0.00 | 0.00 | 0.00 | 52 | 1016.6 |
| 20260505053505 | 17 | 50 | 0.0 | 0.0 | 0.00 | 0.00 | 0.00 | 52 | 1016.6 |
| 20260505053005 | 17 | 38 | 0.0 | 0.0 | 0.00 | 0.00 | 0.00 | 51 | 1016.6 |
| 20260505052505 | 17 | 50 | 1.6 | 3.2 | 0.00 | 0.00 | 0.00 | 51 | 1016.6 |
| 20260505052004 | 17 | 45 | 1.6 | 1.6 | 0.00 | 0.00 | 0.00 | 50 | 1016.9 |
| 20260505051505 | 18 | 52 | 1.6 | 1.6 | 0.00 | 0.00 | 0.00 | 50 | 1016.9 |
| 20260505051005 | 18 | 62 | 1.6 | 1.6 | 0.00 | 0.00 | 0.00 | 50 | 1016.9 |
| 20260505050505 | 18 | 80 | 1.6 | 1.6 | 0.00 | 0.00 | 0.00 | 50 | 1016.9 |
| 20260505041506 | 18 | 58 | 0.0 | 1.6 | 0.00 | 0.00 | 0.00 | 47 | 1016.6 |
| 20260505041004 | 18 | 68 | 0.0 | 1.6 | 0.00 | 0.00 | 0.00 | 47 | 1016.6 |
| 20260505040505 | 18 | 356 | 4.8 | 6.4 | 0.00 | 0.00 | 0.00 | 47 | 1016.6 |
| 20260505040005 | 18 | 57 | 0.0 | 0.0 | 0.00 | 0.00 | 0.00 | 47 | 1016.6 |
| 20260505035506 | 18 | 70 | 3.2 | 6.4 | 0.00 | 0.00 | 0.00 | 47 | 1016.6 |
| 20260505035004 | 18 | 98 | 1.6 | 1.6 | 0.00 | 0.00 | 0.00 | 47 | 1016.6 |
| 20260505034504 | 18 | 66 | 1.6 | 1.6 | 0.00 | 0.00 | 0.00 | 46 | 1016.6 |
| 20260505034004 | 18 | 50 | 1.6 | 3.2 | 0.00 | 0.00 | 0.00 | 46 | 1016.6 |
| 20260505033505 | 18 | 48 | 1.6 | 1.6 | 0.00 | 0.00 | 0.00 | 46 | 1016.6 |
| 20260505033005 | 18 | 63 | 0.0 | 1.6 | 0.00 | 0.00 | 0.00 | 46 | 1016.6 |
| 20260505032505 | 18 | 57 | 0.0 | 0.0 | 0.00 | 0.00 | 0.00 | 45 | 1016.6 |
| 20260505032006 | 18 | 49 | 0.0 | 1.6 | 0.00 | 0.00 | 0.00 | 45 | 1016.6 |
| 20260505031504 | 18 | 61 | 1.6 | 1.6 | 0.00 | 0.00 | 0.00 | 45 | 1016.6 |
| 20260505031005 | 18 | 48 | 1.6 | 1.6 | 0.00 | 0.00 | 0.00 | 45 | 1016.6 |
| 20260505030505 | 19 | 53 | 1.6 | 1.6 | 0.00 | 0.00 | 0.00 | 44 | 1016.6 |
| 20260505030006 | 19 | 57 | 0.0 | 0.0 | 0.00 | 0.00 | 0.00 | 44 | 1016.6 |
| 20260505025504 | 19 | 55 | 0.0 | 0.0 | 0.00 | 0.00 | 0.00 | 44 | 1016.6 |
| 20260505025005 | 19 | 55 | 1.6 | 1.6 | 0.00 | 0.00 | 0.00 | 44 | 1016.6 |
| 20260505024505 | 19 | 56 | 1.6 | 1.6 | 0.00 | 0.00 | 0.00 | 44 | 1016.6 |
| 20260505024007 | 19 | 59 | 0.0 | 1.6 | 0.00 | 0.00 | 0.00 | 43 | 1016.6 |
| 20260505023506 | 19 | 65 | 1.6 | 1.6 | 0.00 | 0.00 | 0.00 | 43 | 1016.6 |
| 20260505023006 | 19 | 55 | 1.6 | 1.6 | 0.00 | 0.00 | 0.00 | 42 | 1016.6 |
| 20260505022507 | 19 | 57 | 1.6 | 1.6 | 0.00 | 0.00 | 0.00 | 42 | 1016.6 |
| 20260505022005 | 19 | 44 | 1.6 | 1.6 | 0.00 | 0.00 | 0.00 | 42 | 1016.6 |
| 20260505021507 | 19 | 41 | 1.6 | 3.2 | 0.00 | 0.00 | 0.00 | 42 | 1016.6 |
| 20260505021007 | 19 | 65 | 1.6 | 1.6 | 0.00 | 0.00 | 0.00 | 41 | 1016.6 |
| 20260505020507 | 19 | 68 | 1.6 | 1.6 | 0.00 | 0.00 | 0.00 | 42 | 1016.6 |
| 20260505020005 | 20 | 71 | 1.6 | 1.6 | 0.00 | 0.00 | 0.00 | 41 | 1016.6 |
| 20260505015505 | 20 | 71 | 1.6 | 1.6 | 0.00 | 0.00 | 0.00 | 41 | 1016.6 |
| 20260505015004 | 20 | 54 | 0.0 | 0.0 | 0.00 | 0.00 | 0.00 | 41 | 1016.6 |
| 20260505014505 | 20 | 50 | 1.6 | 1.6 | 0.00 | 0.00 | 0.00 | 41 | 1016.3 |
| 20260505014005 | 20 | 0 | 1.6 | 1.6 | 0.00 | 0.00 | 0.00 | 41 | 1016.3 |
| 20260505013504 | 20 | 66 | 0.0 | 1.6 | 0.00 | 0.00 | 0.00 | 40 | 1015.9 |
| 20260505013004 | 20 | 58 | 1.6 | 1.6 | 0.00 | 0.00 | 0.00 | 40 | 1015.9 |
| 20260505012504 | 20 | 25 | 1.6 | 1.6 | 0.00 | 0.00 | 0.00 | 40 | 1015.9 |
| 20260505012006 | 20 | 51 | 0.0 | 1.6 | 0.00 | 0.00 | 0.00 | 40 | 1016.3 |
| 20260505011506 | 20 | 57 | 0.0 | 0.0 | 0.00 | 0.00 | 0.00 | 39 | 1016.3 |
| 20260505011005 | 20 | 48 | 0.0 | 0.0 | 0.00 | 0.00 | 0.00 | 39 | 1015.9 |
| 20260505010506 | 20 | 23 | 3.2 | 3.2 | 0.00 | 0.00 | 0.00 | 38 | 1015.9 |
| 20260505010006 | 21 | 34 | 3.2 | 4.8 | 0.00 | 0.00 | 0.00 | 38 | 1015.9 |
| 20260505005504 | 21 | 54 | 1.6 | 1.6 | 0.00 | 0.00 | 0.00 | 37 | 1015.9 |
| 20260505005004 | 21 | 165 | 1.6 | 3.2 | 0.00 | 0.00 | 0.00 | 37 | 1015.9 |
| 20260505004504 | 21 | 41 | 0.0 | 0.0 | 0.00 | 0.00 | 0.00 | 36 | 1015.9 |
| 20260505004005 | 21 | 60 | 3.2 | 3.2 | 0.00 | 0.00 | 0.00 | 36 | 1015.9 |
| 20260505003505 | 21 | 55 | 1.6 | 1.6 | 0.00 | 0.00 | 0.00 | 35 | 1015.9 |
| 20260505003006 | 21 | 49 | 1.6 | 3.2 | 0.00 | 0.00 | 0.00 | 35 | 1015.9 |
| 20260505002504 | 21 | 59 | 3.2 | 4.8 | 0.00 | 0.00 | 0.00 | 35 | 1015.9 |
| 20260505002005 | 22 | 32 | 3.2 | 4.8 | 0.00 | 0.00 | 0.00 | 35 | 1015.9 |
| 20260505001504 | 22 | 36 | 4.8 | 4.8 | 0.00 | 0.00 | 0.00 | 34 | 1015.9 |
| 20260505001004 | 22 | 80 | 3.2 | 3.2 | 0.00 | 0.00 | 0.00 | 34 | 1015.9 |
| 20260505000504 | 22 | 25 | 4.8 | 6.4 | 0.00 | 0.00 | 0.00 | 34 | 1015.9 |
| 20260505000005 | 22 | 90 | 1.6 | 1.6 | 0.00 | 0.00 | 0.00 | 34 | 1015.9 |
| 20260504235504 | 22 | 269 | 6.4 | 9.7 | 0.00 | 0.00 | 0.00 | 34 | 1015.9 |
| 20260504235005 | 22 | 268 | 3.2 | 4.8 | 0.00 | 0.00 | 0.00 | 33 | 1015.9 |
| 20260504234504 | 22 | 99 | 3.2 | 6.4 | 0.00 | 0.00 | 0.00 | 33 | 1015.9 |
| 20260504234005 | 22 | 262 | 6.4 | 8.0 | 0.00 | 0.00 | 0.00 | 33 | 1015.9 |
| 20260504233504 | 22 | 23 | 3.2 | 3.2 | 0.00 | 0.00 | 0.00 | 32 | 1015.2 |
| 20260504233004 | 22 | 244 | 8.0 | 14.5 | 0.00 | 0.00 | 0.00 | 32 | 1015.2 |
| 20260504232505 | 23 | 342 | 3.2 | 3.2 | 0.00 | 0.00 | 0.00 | 31 | 1015.2 |
| 20260504232006 | 23 | 104 | 3.2 | 4.8 | 0.00 | 0.00 | 0.00 | 30 | 1015.2 |
| 20260504231506 | 23 | 260 | 3.2 | 9.7 | 0.00 | 0.00 | 0.00 | 30 | 1015.2 |
| 20260504231005 | 23 | 29 | 0.0 | 1.6 | 0.00 | 0.00 | 0.00 | 30 | 1015.2 |
| 20260504230505 | 23 | 76 | 3.2 | 3.2 | 0.00 | 0.00 | 0.00 | 30 | 1015.2 |
| 20260504230009 | 24 | 253 | 3.2 | 8.0 | 0.00 | 0.00 | 0.00 | 28 | 1015.9 |
| 20260504225505 | 24 | 76 | 1.6 | 1.6 | 0.00 | 0.00 | 0.00 | 28 | 1015.9 |
| 20260504225005 | 23 | 60 | 6.4 | 6.4 | 0.00 | 0.00 | 0.00 | 29 | 1015.9 |
| 20260504224504 | 23 | 270 | 3.2 | 6.4 | 0.00 | 0.00 | 0.00 | 28 | 1015.2 |
| 20260504224005 | 23 | 92 | 6.4 | 14.5 | 0.00 | 0.00 | 0.00 | 28 | 1015.2 |
| 20260504223504 | 25 | 40 | 4.8 | 4.8 | 0.00 | 0.00 | 0.00 | 27 | 1015.2 |
| 20260504223007 | 25 | 107 | 1.6 | 4.8 | 0.00 | 0.00 | 0.00 | 26 | 1015.2 |
| 20260504222506 | 25 | 69 | 3.2 | 3.2 | 0.00 | 0.00 | 0.00 | 27 | 1015.2 |
| 20260504222006 | 25 | 79 | 3.2 | 4.8 | 0.00 | 0.00 | 0.00 | 26 | 1015.2 |
| 20260504221506 | 25 | 299 | 8.0 | 12.9 | 0.00 | 0.00 | 0.00 | 27 | 1015.2 |
| 20260504221005 | 24 | 156 | 3.2 | 12.9 | 0.00 | 0.00 | 0.00 | 28 | 1014.9 |
| 20260504220505 | 25 | 253 | 3.2 | 3.2 | 0.00 | 0.00 | 0.00 | 27 | 1014.9 |
| 20260504220004 | 25 | 4 | 4.8 | 4.8 | 0.00 | 0.00 | 0.00 | 26 | 1015.2 |
| 20260504215506 | 26 | 256 | 6.4 | 9.7 | 0.00 | 0.00 | 0.00 | 24 | 1015.2 |
| 20260504215006 | 26 | 77 | 3.2 | 8.0 | 0.00 | 0.00 | 0.00 | 24 | 1015.2 |
| 20260504214505 | 26 | 282 | 6.4 | 11.3 | 0.00 | 0.00 | 0.00 | 24 | 1015.2 |
| 20260504214004 | 26 | 26 | 4.8 | 8.0 | 0.00 | 0.00 | 0.00 | 24 | 1015.2 |
| 20260504213504 | 27 | 38 | 1.6 | 1.6 | 0.00 | 0.00 | 0.00 | 24 | 1015.2 |
| 20260504213005 | 27 | 278 | 3.2 | 4.8 | 0.00 | 0.00 | 0.00 | 23 | 1015.2 |
| 20260504212507 | 27 | 53 | 3.2 | 3.2 | 0.00 | 0.00 | 0.00 | 24 | 1015.9 |
| 20260504212006 | 27 | 268 | 3.2 | 6.4 | 0.00 | 0.00 | 0.00 | 24 | 1015.9 |
| 20260504211506 | 27 | 75 | 3.2 | 6.4 | 0.00 | 0.00 | 0.00 | 24 | 1015.9 |
| 20260504211006 | 27 | 312 | 6.4 | 11.3 | 0.00 | 0.00 | 0.00 | 23 | 1015.2 |
| 20260504210507 | 26 | 195 | 8.0 | 8.0 | 0.00 | 0.00 | 0.00 | 24 | 1015.2 |
| 20260504210007 | 26 | 274 | 3.2 | 4.8 | 0.00 | 0.00 | 0.00 | 25 | 1015.9 |
| 20260504205504 | 27 | 340 | 6.4 | 6.4 | 0.00 | 0.00 | 0.00 | 24 | 1015.9 |
| 20260504205007 | 27 | 246 | 3.2 | 9.7 | 0.00 | 0.00 | 0.00 | 24 | 1015.9 |
| 20260504204506 | 27 | 57 | 1.6 | 9.7 | 0.00 | 0.00 | 0.00 | 23 | 1015.9 |
| 20260504204005 | 27 | 238 | 8.0 | 8.0 | 0.00 | 0.00 | 0.00 | 23 | 1015.9 |
| 20260504203505 | 27 | 56 | 4.8 | 6.4 | 0.00 | 0.00 | 0.00 | 23 | 1015.9 |
| 20260504203006 | 27 | 145 | 1.6 | 3.2 | 0.00 | 0.00 | 0.00 | 23 | 1015.9 |
| 20260504202507 | 27 | 248 | 8.0 | 14.5 | 0.00 | 0.00 | 0.00 | 24 | 1015.9 |
| 20260504202006 | 26 | 337 | 9.7 | 12.9 | 0.00 | 0.00 | 0.00 | 24 | 1015.9 |
| 20260504201505 | 27 | 4 | 4.8 | 6.4 | 0.00 | 0.00 | 0.00 | 24 | 1015.9 |
| 20260504201005 | 26 | 305 | 8.0 | 8.0 | 0.00 | 0.00 | 0.00 | 24 | 1016.3 |
| 20260504200505 | 28 | 15 | 1.6 | 3.2 | 0.00 | 0.00 | 0.00 | 22 | 1016.3 |
| 20260504200006 | 28 | 76 | 1.6 | 1.6 | 0.00 | 0.00 | 0.00 | 23 | 1016.3 |
| 20260504195506 | 27 | 62 | 1.6 | 1.6 | 0.00 | 0.00 | 0.00 | 23 | 1016.3 |
| 20260504195007 | 27 | 258 | 4.8 | 9.7 | 0.00 | 0.00 | 0.00 | 24 | 1016.3 |
| 20260504194507 | 27 | 224 | 4.8 | 12.9 | 0.00 | 0.00 | 0.00 | 23 | 1016.6 |
| 20260504194005 | 28 | 265 | 4.8 | 4.8 | 0.00 | 0.00 | 0.00 | 23 | 1016.6 |
| 20260504193506 | 28 | 59 | 1.6 | 3.2 | 0.00 | 0.00 | 0.00 | 22 | 1016.6 |
| 20260504193005 | 27 | 70 | 1.6 | 1.6 | 0.00 | 0.00 | 0.00 | 23 | 1016.6 |
| 20260504192505 | 26 | 81 | 3.2 | 4.8 | 0.00 | 0.00 | 0.00 | 24 | 1016.6 |
| 20260504192005 | 26 | 265 | 3.2 | 3.2 | 0.00 | 0.00 | 0.00 | 24 | 1016.9 |
| 20260504191506 | 27 | 26 | 3.2 | 3.2 | 0.00 | 0.00 | 0.00 | 24 | 1016.9 |
| 20260504191005 | 27 | 98 | 3.2 | 11.3 | 0.00 | 0.00 | 0.00 | 23 | 1017.3 |
| 20260504190507 | 26 | 80 | 3.2 | 4.8 | 0.00 | 0.00 | 0.00 | 24 | 1017.3 |
| 20260504190006 | 26 | 45 | 1.6 | 4.8 | 0.00 | 0.00 | 0.00 | 24 | 1017.3 |
| 20260504185506 | 26 | 91 | 4.8 | 4.8 | 0.00 | 0.00 | 0.00 | 24 | 1017.3 |
| 20260504185005 | 26 | 105 | 3.2 | 6.4 | 0.00 | 0.00 | 0.00 | 24 | 1017.3 |
| 20260504184506 | 26 | 51 | 1.6 | 1.6 | 0.00 | 0.00 | 0.00 | 24 | 1017.3 |
| 20260504184006 | 26 | 241 | 8.0 | 8.0 | 0.00 | 0.00 | 0.00 | 24 | 1017.3 |
| 20260504183507 | 26 | 61 | 3.2 | 3.2 | 0.00 | 0.00 | 0.00 | 25 | 1017.6 |
| 20260504183007 | 26 | 198 | 1.6 | 1.6 | 0.00 | 0.00 | 0.00 | 24 | 1017.6 |
| 20260504182507 | 25 | 93 | 3.2 | 8.0 | 0.00 | 0.00 | 0.00 | 25 | 1017.6 |
| 20260504182007 | 25 | 329 | 4.8 | 4.8 | 0.00 | 0.00 | 0.00 | 24 | 1017.6 |
| 20260504181506 | 25 | 90 | 1.6 | 3.2 | 0.00 | 0.00 | 0.00 | 24 | 1017.6 |
| 20260504181007 | 25 | 194 | 4.8 | 12.9 | 0.00 | 0.00 | 0.00 | 24 | 1017.6 |
| 20260504180507 | 26 | 54 | 3.2 | 6.4 | 0.00 | 0.00 | 0.00 | 23 | 1017.6 |
| 20260504180008 | 25 | 79 | 8.0 | 8.0 | 0.00 | 0.00 | 0.00 | 24 | 1017.9 |
| 20260504175505 | 26 | 298 | 4.8 | 4.8 | 0.00 | 0.00 | 0.00 | 23 | 1017.9 |
| 20260504175006 | 25 | 243 | 8.0 | 12.9 | 0.00 | 0.00 | 0.00 | 23 | 1017.9 |
| 20260504174507 | 26 | 56 | 1.6 | 1.6 | 0.00 | 0.00 | 0.00 | 23 | 1017.9 |
| 20260504174006 | 25 | 72 | 3.2 | 6.4 | 0.00 | 0.00 | 0.00 | 24 | 1017.9 |
| 20260504173508 | 24 | 76 | 3.2 | 9.7 | 0.00 | 0.00 | 0.00 | 24 | 1017.9 |
| 20260504173007 | 25 | 220 | 4.8 | 4.8 | 0.00 | 0.00 | 0.00 | 24 | 1017.9 |
| 20260504172506 | 25 | 90 | 1.6 | 3.2 | 0.00 | 0.00 | 0.00 | 23 | 1017.9 |
| 20260504172004 | 25 | 184 | 1.6 | 1.6 | 0.00 | 0.00 | 0.00 | 24 | 1017.9 |
| 20260504171507 | 25 | 52 | 3.2 | 3.2 | 0.00 | 0.00 | 0.00 | 23 | 1017.9 |
| 20260504171005 | 25 | 75 | 1.6 | 1.6 | 0.00 | 0.00 | 0.00 | 24 | 1018.3 |
| 20260504170506 | 23 | 270 | 8.0 | 9.7 | 0.00 | 0.00 | 0.00 | 24 | 1018.3 |
| 20260504151007 | 21 | 51 | 1.6 | 3.2 | 0.00 | 0.00 | 0.00 | 27 | 1020.0 |
| 20260504150507 | 21 | 36 | 0.0 | 3.2 | 0.00 | 0.00 | 0.00 | 27 | 1020.0 |
| 20260504141010 | 17 | 49 | 0.0 | 0.0 | 0.00 | 0.00 | 0.00 | 38 | 1020.0 |
| 20260504140507 | 17 | 20 | 1.6 | 3.2 | 0.00 | 0.00 | 0.00 | 38 | 1020.0 |
| 20260504130507 | 14 | 82 | 1.6 | 3.2 | 0.00 | 0.00 | 0.00 | 45 | 1020.0 |
| 20260504110506 | 9 | 53 | 0.0 | 0.0 | 0.00 | 0.00 | 0.00 | 63 | 1020.7 |
| 20260504100506 | 9 | 51 | 0.0 | 0.0 | 0.00 | 0.00 | 0.00 | 59 | 1020.7 |